Simultaneous Nadir Overpasses (SNOs) Predictions

Prediction of SNOs between METOP-A and TERRA Satellite Orbit:

Table of predicted SNOs for the next 14.0 days since TLE Epoch: 7/19/2014
Index Date (METOP-A) Time (METOP-A) Lat,Lon (METOP-A) SZA (METOP-A ) Date (TERRA) Time (TERRA) Lat,Lon (TERRA) SZA (TERRA ) Distance(km) Time Diff (sec)
1 07/19/2014 22:37:52 81.28,-112.51 63.27 07/19/2014 22:38:45 81.28,-112.71 63.27 3.33 53
2 07/19/2014 23:28:33 -81.28, 54.83 116.73 07/19/2014 23:28:12 -81.28, 54.85 116.74 0.47 21
3 07/22/2014 18:12:16 81.28, -46.16 63.80 07/22/2014 18:12:54 81.29, -46.19 63.82 0.82 38
4 07/22/2014 19:02:57 -81.28, 121.22 116.19 07/22/2014 19:02:21 -81.28, 121.40 116.19 3.02 36
5 07/25/2014 13:46:41 81.28, 20.17 64.37 07/25/2014 13:47:04 81.29, 20.24 64.40 1.42 23
6 07/
